星链-11227 (STARLINK-11227)

导读

STARLINK-11227是美国太空探索技术公司(SpaceX)星链(Starlink)星座的成员,于2024年7月28日发射入轨,属于第二代星链卫星。星链计划旨在构建全球卫星互联网星座,为全球提供高速低延迟互联网服务,该卫星的发射进一步扩充了星链星座的在轨规模,提升星座服务覆盖能力。

Basic Information
目录编号:
60303
目录名称:
STARLINK-11227
国际标识:
2024-133C
轨道中心:
EARTH
卫星名称:
星链-11227 (STARLINK-11227)
卫星全名:
星链-11227 (STARLINK-11227)
卫星状态:
在轨 (已飞行686 天)
发射日期:
2024-07-28 UTC
国别 :
美国 (US)
星等 :
--
Orbit Information
数据来源 国际轨道数据
星历时间: 2026-06-14T05:36:11+0800
16小时前
查看轨道信息
半长轴: 6737.854km
偏心率: 0.0000729
轨道倾角: 53.159°
近地点辐角 94.415°
升交点赤经 32.044°
平近点角 265.696°
近地点: 359.225km
远地点: 360.209km
周期: 91.736分钟
每日圈数: 15.697137
Detailed Information
卫星平台:
Starlink v2.0 mini
运营商:
太空探索技术公司
运营商所在国:
美国
制造商(研发单位):
太空探索技术公司
制造商所在国:
美国
使用方式:
暂无
Satellite Introduction
星链(Starlink)计划是由太空探索技术公司(SpaceX)提出的一个巨型低轨卫星互联网星座项目,计划在2019年至2024年间在太空搭建由约1.2万颗卫星组成的“星链”网络,其中1584颗将部署在地球上空550千米处的近地轨道,并从2020年开始工作。该卫星仍在工作。
2D Orbit Map
3D Orbit Map
Orbit Altitude Analysis Chart
Orbit Inclination Analysis Chart
Orbit Comprehensive Analysis Chart
View Comprehensive Chart